When you browse on this site, cookies collect data to enhance your experience and personalize the content and advertising you see.
Visit our Privacy Policy to learn more. By continuing to use the site, you agree to this use of cookies and data.
  • In Hungary
  • List of Countries
  • For 7 days
  • Water Temperature
  • Satellite Maps
  • Weather Map
  • News
  • Weather Widgets
  • user-avatar
    Login

    Hourly Weather Miedzyborz

    Today, 16 January, Wednesday

    Time Temperature Precipitation Wind Pressure Humidity
    00:00 +2°C° 0.1 mm 9 mps 744 mmHg 87%
    01:00 +3°C° 0 mm 7 mps 744 mmHg 86%
    02:00 +3°C° 0.4 mm 7 mps 745 mmHg 88%
    03:00 +3°C° 0.4 mm 6 mps 745 mmHg 90%
    04:00 +3°C° 0.4 mm 6 mps 745 mmHg 91%
    05:00 +3°C° 0.5 mm 6 mps 746 mmHg 91%
    06:00 +3°C° 0.5 mm 6 mps 746 mmHg 91%
    07:00 +3°C° 0.5 mm 6 mps 746 mmHg 91%
    08:00 +4°C° 0.2 mm 7 mps 746 mmHg 89%
    09:00 +4°C° 0.2 mm 7 mps 747 mmHg 86%
    10:00 +4°C° 0.2 mm 7 mps 747 mmHg 84%
    11:00 +4°C° 0 mm 7 mps 747 mmHg 83%
    12:00 +4°C° 0 mm 7 mps 747 mmHg 82%
    13:00 +4°C° 0 mm 7 mps 747 mmHg 82%
    14:00 +4°C° 0 mm 6 mps 747 mmHg 82%
    15:00 +4°C° 0 mm 6 mps 747 mmHg 83%
    16:00 +3°C° 0 mm 5 mps 747 mmHg 83%
    17:00 +3°C° 0 mm 5 mps 747 mmHg 83%
    18:00 +3°C° 0 mm 5 mps 746 mmHg 82%
    19:00 +3°C° 0 mm 5 mps 746 mmHg 82%
    20:00 +3°C° 0 mm 5 mps 746 mmHg 82%
    21:00 +2°C° 0 mm 5 mps 745 mmHg 82%
    22:00 +2°C° 0 mm 5 mps 745 mmHg 82%
    23:00 +2°C° 0 mm 5 mps 744 mmHg 80%

    Tomorrow, 17 January, Thursday

    Time Temperature Precipitation Wind Pressure Humidity
    00:00 +2°C° 0 mm 5 mps 744 mmHg 79%
    01:00 +2°C° 0 mm 5 mps 743 mmHg 77%
    02:00 +2°C° 0 mm 6 mps 743 mmHg 75%
    03:00 +1°C° 0 mm 6 mps 742 mmHg 72%
    04:00 +1°C° 0 mm 6 mps 742 mmHg 70%
    05:00 0°C° 0 mm 7 mps 742 mmHg 70%
    06:00 0°C° 0 mm 7 mps 742 mmHg 69%
    07:00 0°C° 0 mm 7 mps 741 mmHg 69%
    08:00 +1°C° 0 mm 8 mps 742 mmHg 71%
    09:00 +1°C° 0 mm 8 mps 742 mmHg 74%
    10:00 +2°C° 0 mm 8 mps 742 mmHg 76%
    11:00 +4°C° 0 mm 8 mps 742 mmHg 73%
    12:00 +4°C° 0 mm 8 mps 742 mmHg 69%
    13:00 +5°C° 0 mm 7 mps 742 mmHg 66%
    14:00 +4°C° 0 mm 7 mps 742 mmHg 67%
    15:00 +4°C° 0 mm 6 mps 742 mmHg 68%
    16:00 +4°C° 0 mm 6 mps 741 mmHg 69%
    17:00 +4°C° 0 mm 7 mps 741 mmHg 69%
    18:00 +2°C° 0 mm 8 mps 741 mmHg 69%
    19:00 +2°C° 0 mm 9 mps 741 mmHg 69%
    20:00 +2°C° 0.3 mm 8 mps 742 mmHg 68%
    21:00 +1°C° 0.3 mm 8 mps 742 mmHg 66%
    22:00 0°C° 0.3 mm 8 mps 743 mmHg 65%
    23:00 0°C° 0 mm 8 mps 743 mmHg 66%

    Day after tomorrow, 18 January, Friday

    Time Temperature Precipitation Wind Pressure Humidity
    00:00 -1°C° 0 mm 8 mps 744 mmHg 67%
    01:00 -2°C° 0 mm 7 mps 744 mmHg 68%
    02:00 -2°C° 0 mm 8 mps 744 mmHg 68%
    03:00 -2°C° 0 mm 8 mps 744 mmHg 69%
    04:00 -2°C° 0 mm 8 mps 745 mmHg 69%
    05:00 -3°C° 0.3 mm 9 mps 745 mmHg 73%
    06:00 -3°C° 0.3 mm 9 mps 746 mmHg 77%
    07:00 -4°C° 0.3 mm 9 mps 747 mmHg 81%
    08:00 -4°C° 0 mm 9 mps 748 mmHg 80%
    09:00 -4°C° 0 mm 8 mps 749 mmHg 79%
    10:00 -2°C° 0 mm 8 mps 751 mmHg 78%
    11:00 -2°C° 0 mm 7 mps 751 mmHg 73%
    12:00 -2°C° 0 mm 7 mps 752 mmHg 69%
    13:00 -2°C° 0 mm 6 mps 753 mmHg 65%
    14:00 -1°C° 0 mm 5 mps 754 mmHg 68%
    15:00 -2°C° 0 mm 4 mps 754 mmHg 71%
    16:00 -1°C° 0 mm 3 mps 755 mmHg 74%
    17:00 -2°C° 0 mm 3 mps 755 mmHg 77%
    18:00 -2°C° 0 mm 3 mps 756 mmHg 79%
    19:00 -4°C° 0 mm 3 mps 756 mmHg 81%
    20:00 -3°C° 0 mm 2 mps 756 mmHg 83%
    21:00 -3°C° 0 mm 2 mps 757 mmHg 85%
    22:00 -3°C° 0 mm 2 mps 757 mmHg 87%
    23:00 -4°C° 0 mm 3 mps 757 mmHg 87%

    19 January, Saturday

    Time Temperature Precipitation Wind Pressure Humidity
    00:00 -4°C° 0 mm 3 mps 757 mmHg 88%
    01:00 -4°C° 0 mm 3 mps 757 mmHg 88%
    02:00 -4°C° 0 mm 3 mps 757 mmHg 86%
    03:00 -4°C° 0 mm 3 mps 757 mmHg 84%
    04:00 -4°C° 0 mm 3 mps 757 mmHg 82%
    05:00 -4°C° 0 mm 3 mps 757 mmHg 81%
    06:00 -4°C° 0 mm 3 mps 757 mmHg 79%
    07:00 -3°C° 0 mm 2 mps 757 mmHg 77%
    08:00 -2°C° 0 mm 2 mps 757 mmHg 74%
    09:00 -2°C° 0 mm 2 mps 757 mmHg 70%
    10:00 -1°C° 0 mm 2 mps 757 mmHg 67%
    11:00 -1°C° 0 mm 2 mps 757 mmHg 64%
    12:00 +1°C° 0 mm 2 mps 757 mmHg 61%
    13:00 +2°C° 0 mm 2 mps 756 mmHg 57%
    14:00 +2°C° 0 mm 1 mps 756 mmHg 60%
    15:00 +1°C° 0 mm 1 mps 756 mmHg 63%
    16:00 0°C° 0 mm 0 mps 756 mmHg 66%
    17:00 -1°C° 0 mm 0 mps 756 mmHg 66%
    18:00 0°C° 0 mm 1 mps 756 mmHg 67%
    19:00 0°C° 0 mm 1 mps 756 mmHg 68%
    20:00 0°C° 0 mm 1 mps 756 mmHg 69%
    21:00 0°C° 0 mm 1 mps 756 mmHg 69%
    22:00 -1°C° 0 mm 1 mps 756 mmHg 70%
    23:00 -1°C° 0 mm 1 mps 756 mmHg 71%

    20 January, Sunday

    Time Temperature Precipitation Wind Pressure Humidity
    00:00 -2°C° 0 mm 0 mps 756 mmHg 72%
    01:00 -2°C° 0 mm 0 mps 756 mmHg 72%
    02:00 -2°C° 0 mm 0 mps 756 mmHg 72%
    03:00 -2°C° 0 mm 0 mps 756 mmHg 72%
    04:00 -2°C° 0 mm 0 mps 756 mmHg 72%
    05:00 -2°C° 0 mm 0 mps 756 mmHg 72%
    06:00 -2°C° 0 mm 0 mps 756 mmHg 72%
    07:00 -1°C° 0 mm 1 mps 756 mmHg 72%
    08:00 -1°C° 0 mm 1 mps 757 mmHg 70%
    09:00 0°C° 0 mm 1 mps 757 mmHg 67%
    10:00 0°C° 0 mm 1 mps 757 mmHg 65%
    11:00 -1°C° 0 mm 2 mps 757 mmHg 63%
    12:00 +1°C° 0 mm 2 mps 757 mmHg 62%
    13:00 0°C° 0 mm 3 mps 757 mmHg 61%
    14:00 -1°C° 0 mm 2 mps 757 mmHg 65%
    15:00 -1°C° 0 mm 2 mps 758 mmHg 70%
    16:00 -2°C° 0 mm 2 mps 758 mmHg 74%
    17:00 -2°C° 0 mm 2 mps 758 mmHg 76%
    18:00 -2°C° 0 mm 3 mps 759 mmHg 78%
    19:00 -1°C° 0 mm 3 mps 759 mmHg 80%
    20:00 -2°C° 0 mm 3 mps 760 mmHg 82%
    21:00 -3°C° 0 mm 2 mps 760 mmHg 84%
    22:00 -3°C° 0 mm 2 mps 761 mmHg 86%
    23:00 -3°C° 0 mm 2 mps 761 mmHg 84%

    21 January, Monday

    Time Temperature Precipitation Wind Pressure Humidity
    00:00 -4°C° 0 mm 2 mps 761 mmHg 82%
    01:00 -4°C° 0 mm 2 mps 762 mmHg 80%
    02:00 -4°C° 0 mm 2 mps 762 mmHg 79%
    03:00 -4°C° 0 mm 2 mps 762 mmHg 78%
    04:00 -4°C° 0 mm 2 mps 763 mmHg 77%
    05:00 -4°C° 0 mm 2 mps 763 mmHg 77%
    06:00 -5°C° 0 mm 2 mps 763 mmHg 77%
    07:00 -5°C° 0 mm 2 mps 764 mmHg 77%
    08:00 -4°C° 0 mm 2 mps 764 mmHg 74%
    09:00 -2°C° 0 mm 1 mps 765 mmHg 70%
    10:00 -1°C° 0 mm 1 mps 765 mmHg 67%
    11:00 -1°C° 0 mm 1 mps 765 mmHg 64%
    12:00 0°C° 0 mm 1 mps 765 mmHg 60%
    13:00 0°C° 0 mm 1 mps 765 mmHg 57%
    14:00 0°C° 0 mm 1 mps 765 mmHg 59%
    15:00 -1°C° 0 mm 1 mps 765 mmHg 62%
    16:00 -1°C° 0 mm 1 mps 765 mmHg 64%
    17:00 -1°C° 0 mm 1 mps 765 mmHg 66%
    18:00 -2°C° 0 mm 1 mps 765 mmHg 67%
    19:00 -2°C° 0 mm 1 mps 765 mmHg 68%
    20:00 -2°C° 0 mm 1 mps 765 mmHg 69%
    21:00 -2°C° 0 mm 1 mps 765 mmHg 70%
    22:00 -2°C° 0 mm 1 mps 765 mmHg 71%
    23:00 -3°C° 0 mm 1 mps 765 mmHg 72%
    Show more